TimeCEST,TemperatureF,Dew PointF,Humidity,Sea Level PressureIn,VisibilityMPH,Wind Direction,Wind SpeedMPH,Gust SpeedMPH,PrecipitationIn,Events,Conditions,WindDirDegrees,DateUTC
12:00 AM,53.6,51.8,94,29.95,6.2,Calm,Calm,-,N/A,,Partly Cloudy,0,2013-09-14 22:00:00
12:30 AM,50.0,50.0,100,29.95,-9999.0,ESE,3.5,-,N/A,,Clear,110,2013-09-14 22:30:00
1:00 AM,51.8,50.0,94,29.95,-9999.0,WNW,2.3,-,N/A,,Clear,290,2013-09-14 23:00:00
1:30 AM,50.0,50.0,100,29.95,-9999.0,West,5.8,-,N/A,,Clear,270,2013-09-14 23:30:00
2:00 AM,51,50,94,29.97,6,WNW,2.2,,,,Clear,300,2013-09-15 00:00:00
2:00 AM,51.8,50.0,94,29.95,-9999.0,NW,2.3,-,N/A,,Clear,320,2013-09-15 00:00:00
2:30 AM,51.8,50.0,94,29.95,-9999.0,NNE,3.5,-,N/A,,Clear,30,2013-09-15 00:30:00
3:00 AM,50.0,48.2,94,29.92,3.7,NE,4.6,-,N/A,,Unknown,40,2013-09-15 01:00:00
3:30 AM,48.2,46.4,93,29.95,3.1,WSW,4.6,-,N/A,,Mist,240,2013-09-15 01:30:00
3:41 AM,48.2,48.2,100,29.95,1.9,WSW,5.8,-,N/A,,Mostly Cloudy,250,2013-09-15 01:41:00
4:00 AM,50.0,48.2,94,29.92,0.9,Variable,1.2,-,N/A,,Mostly Cloudy,0,2013-09-15 02:00:00
4:30 AM,48.2,46.4,93,29.92,0.9,West,3.5,-,N/A,,Mostly Cloudy,260,2013-09-15 02:30:00
5:00 AM,50.0,48.2,94,29.92,1.9,West,3.5,-,N/A,,Scattered Clouds,270,2013-09-15 03:00:00
5:12 AM,50.0,50.0,100,29.92,3.1,NW,2.3,-,N/A,,Mist,310,2013-09-15 03:12:00
5:30 AM,50.0,50.0,100,29.92,4.3,Variable,2.3,-,N/A,,Unknown,0,2013-09-15 03:30:00
6:00 AM,51.8,50.0,94,29.92,4.3,Variable,1.2,-,N/A,,Unknown,0,2013-09-15 04:00:00
6:30 AM,50.0,48.2,94,29.92,2.8,ESE,4.6,-,N/A,,Mist,110,2013-09-15 04:30:00
7:00 AM,50.0,48.2,94,29.92,2.8,North,4.6,-,N/A,Fog,Fog,10,2013-09-15 05:00:00
7:30 AM,51.8,50.0,94,29.92,2.5,Variable,1.2,-,N/A,Fog,Fog,0,2013-09-15 05:30:00
8:00 AM,51.8,50.0,94,29.92,2.5,Calm,Calm,-,N/A,Fog,Fog,0,2013-09-15 06:00:00
8:30 AM,53.6,50.0,88,29.89,2.8,ENE,2.3,-,N/A,Fog,Fog,70,2013-09-15 06:30:00
8:40 AM,53.6,51.8,94,29.92,3.1,Variable,1.2,-,N/A,,Mist,0,2013-09-15 06:40:00
9:00 AM,53.6,51.8,94,29.89,-9999.0,East,3.5,-,N/A,,Clear,80,2013-09-15 07:00:00
9:30 AM,57.2,51.8,82,29.89,-9999.0,Variable,2.3,-,N/A,,Clear,0,2013-09-15 07:30:00
10:00 AM,57.2,53.6,88,29.92,5.0,Variable,1.2,-,N/A,,Partly Cloudy,0,2013-09-15 08:00:00
10:30 AM,57.2,53.6,88,29.92,6.2,South,3.5,-,N/A,,Partly Cloudy,180,2013-09-15 08:30:00
11:00 AM,59.0,53.6,82,29.89,6.2,Variable,2.3,-,N/A,,Partly Cloudy,0,2013-09-15 09:00:00
11:30 AM,59.0,53.6,82,29.89,6.2,SSW,4.6,-,N/A,Rain,Light Rain,200,2013-09-15 09:30:00
12:00 PM,59.0,55.4,88,29.89,6.2,SSW,4.6,-,N/A,Rain,Light Rain,200,2013-09-15 10:00:00
12:30 PM,60.8,55.4,82,29.89,6.2,Variable,2.3,-,N/A,Rain,Light Rain,0,2013-09-15 10:30:00
1:00 PM,62.6,55.4,77,29.89,6.2,Variable,2.3,-,N/A,,Partly Cloudy,0,2013-09-15 11:00:00
1:30 PM,62.6,57.2,82,29.89,6.2,Variable,2.3,-,N/A,,Partly Cloudy,0,2013-09-15 11:30:00
2:00 PM,64,56,70,29.86,22,ESE,2.2,,,,Partly Cloudy,110,2013-09-15 12:00:00
2:00 PM,64.4,57.2,77,29.86,6.2,East,3.5,-,N/A,,Partly Cloudy,80,2013-09-15 12:00:00
2:30 PM,66.2,57.2,73,29.86,-9999.0,SE,3.5,-,N/A,,Clear,140,2013-09-15 12:30:00
3:00 PM,66.2,59.0,78,29.83,-9999.0,ESE,3.5,-,N/A,,Clear,110,2013-09-15 13:00:00
3:30 PM,66.2,57.2,73,29.83,-9999.0,SE,5.8,-,N/A,,Clear,130,2013-09-15 13:30:00
4:00 PM,66.2,57.2,73,29.83,-9999.0,ESE,5.8,-,N/A,,Clear,120,2013-09-15 14:00:00
4:30 PM,66.2,57.2,73,29.83,-9999.0,ESE,3.5,-,N/A,,Clear,110,2013-09-15 14:30:00
5:00 PM,66.2,57.2,73,29.80,-9999.0,SE,4.6,-,N/A,,Clear,140,2013-09-15 15:00:00
5:30 PM,66.2,59.0,78,29.80,-9999.0,SE,4.6,-,N/A,,Clear,130,2013-09-15 15:30:00
6:00 PM,66.2,59.0,78,29.80,-9999.0,ESE,3.5,-,N/A,,Clear,120,2013-09-15 16:00:00
6:30 PM,64.4,59.0,83,29.80,-9999.0,East,3.5,-,N/A,,Clear,100,2013-09-15 16:30:00
7:00 PM,62.6,59.0,88,29.77,-9999.0,ESE,3.5,-,N/A,,Clear,110,2013-09-15 17:00:00
7:30 PM,64.4,59.0,83,29.77,-9999.0,SSE,2.3,-,N/A,,Clear,150,2013-09-15 17:30:00
8:00 PM,63,59,82,29.78,19,SE,2.2,,,,Mostly Cloudy,130,2013-09-15 18:00:00
8:00 PM,62.6,59.0,88,29.77,-9999.0,SE,2.3,-,N/A,,Clear,140,2013-09-15 18:00:00
8:04 PM,62.6,59.0,88,29.77,6.2,SE,3.5,-,N/A,Rain,Light Rain,130,2013-09-15 18:04:00
8:30 PM,62.6,59.0,88,29.77,6.2,SSE,3.5,-,N/A,Rain,Light Rain,150,2013-09-15 18:30:00
9:00 PM,62.6,59.0,88,29.77,6.2,Variable,2.3,-,N/A,Rain,Light Rain,0,2013-09-15 19:00:00
9:30 PM,62.6,59.0,88,29.77,6.2,Variable,1.2,-,N/A,Rain,Light Rain,0,2013-09-15 19:30:00
10:00 PM,60.8,59.0,94,29.77,6.2,SE,3.5,-,N/A,Rain,Light Rain,130,2013-09-15 20:00:00
10:30 PM,60.8,57.2,88,29.77,6.2,ENE,3.5,-,N/A,Rain,Light Rain,70,2013-09-15 20:30:00
11:00 PM,60.8,59.0,94,29.77,6.2,NE,3.5,-,N/A,Rain,Light Rain,50,2013-09-15 21:00:00
11:30 PM,60.8,57.2,88,29.77,6.2,East,3.5,-,N/A,Rain,Light Rain,90,2013-09-15 21:30:00